This is the latest recevied weather packets stored in our database for station/object IW1CBG-23. If no packets are shown the sender has not sent any weather packets the latest 10 day(s).
| Time | Temp. | Humidity | Pressure | Rain* | Wind** | Luminosity | Snow |
|---|---|---|---|---|---|---|---|
| 1788118308 | 18.89° C | 99% | 1014.8 hPa | - | - | - | - |
| 1788117071 | 18.89° C | 99% | 1014.6 hPa | - | - | - | - |
| 1788115834 | 18.89° C | 99% | 1014.4 hPa | - | - | - | - |
| 1788110887 | 19.44° C | 99% | 1013.8 hPa | - | - | - | - |
| 1788109651 | 20° C | 99% | 1013.7 hPa | - | - | - | - |
| 1788107176 | 20° C | 99% | 1013.6 hPa | - | - | - | - |
| 1788103465 | 22.22° C | 99% | 1013.5 hPa | - | - | - | - |
| 1788102230 | 22.78° C | 99% | 1013.5 hPa | - | - | - | - |
| 1788100993 | 22.78° C | 99% | 1013.6 hPa | - | - | - | - |
| 1788099758 | 23.33° C | 89% | 1013.6 hPa | - | - | - | - |
| 1788098523 | 24.44° C | 76% | 1013.6 hPa | - | - | - | - |
| 1788097285 | 24.44° C | 62% | 1013.7 hPa | - | - | - | - |
| 1788096051 | 25° C | 56% | 1013.7 hPa | - | - | - | - |
| 1788094815 | 26.11° C | 54% | 1013.8 hPa | - | - | - | - |
| 1788093575 | 26.11° C | 55% | 1014 hPa | - | - | - | - |
| 1788092339 | 26.11° C | 52% | 1014 hPa | - | - | - | - |
| 1788091102 | 26.67° C | 50% | 1014.2 hPa | - | - | - | - |
| 1788089869 | 25.56° C | 55% | 1014.2 hPa | - | - | - | - |
| 1788088630 | 26.67° C | 58% | 1014.4 hPa | - | - | - | - |
| 1788087390 | 25.56° C | 59% | 1014.5 hPa | - | - | - | - |
| 1788086151 | 25° C | 60% | 1014.7 hPa | - | - | - | - |
| 1788084910 | 25.56° C | 63% | 1014.9 hPa | - | - | - | - |
| 1788083672 | 24.44° C | 63% | 1014.9 hPa | - | - | - | - |
| 1788082434 | 23.33° C | 66% | 1015 hPa | - | - | - | - |
| 1788081196 | 22.78° C | 70% | 1015 hPa | - | - | - | - |
* Rain since midnight (hover to see other rain measurements)
** Current wind speed in m/s (hover to see current wind gust speed)